Weather History for Novato, CA

Change the Weather History Date:

Wednesday, August 7, 2013

  Actual Average (KAPC) Record (KAPC)
Temperature  
Mean Temperature 63 °F 65 °F  
Max Temperature 71 °F 79 °F 90 °F (2002)
Min Temperature 55 °F 52 °F 46 °F (2009)
Degree Days  
Heating Degree Days 2    
Month to date heating degree days  
Since 1 June heating degree days  
Since 1 July heating degree days  
Cooling Degree Days 0    
Month to date cooling degree days  
Year to date cooling degree days  
Since 1 June cooling degree days  
Growing Degree Days 13 (Base 50)    
Moisture  
Dew Point 56 °F    
Average Humidity 83    
Maximum Humidity 100    
Minimum Humidity 57    
Precipitation  
Precipitation 0.00 in - 0.00 in (2014)
Month to date precipitation  
Year to date precipitation  
Since 1 July precipitation  
Sea Level Pressure  
Sea Level Pressure 30.07 in    
Wind  
Wind Speed 6 mph (West)    
Max Wind Speed 16 mph    
Max Gust Speed 21 mph    
Visibility 9 miles    
Events Rain    
T = Trace of Precipitation, MM = Missing Value Source: NWS Daily Summary

Daily Weather History Graph

Daily Weather History Graph

Search for Another Location

Airport:

Trip Planner

Search our weather history database for the weather conditions in past years. The results will help you decide how hot, cold, wet, or windy it might be!

Date:

Astronomy

Aug. 07, 2013 Rise Set
Actual Time 6:18 AM PDT 8:12 PM PDT
Civil Twilight 5:49 AM PDT 8:41 PM PDT
Nautical Twilight 5:14 AM PDT 9:16 PM PDT
Astronomical Twilight 4:37 AM PDT 9:53 PM PDT
Moon 7:10 AM PDT (8/7) 8:25 PM PDT (8/7)
Length of Visible Light 14h 51m
Length of Day
13h 54m
New Moon, 1% of the Moon is Illuminated
Aug 7
New Moon
Aug 14
First Quarter
Aug 20
Full
Aug 28
Last Quarter
Sep 5
New

Hourly Weather History & Observations

Time (PDT) Temp. Dew Point Humidity Pressure Visibility Wind Dir Wind Speed Gust Speed Precip Events Conditions
12:15 AM 59.0 °F 55.4 °F 88% 30.06 in 10.0 mi WSW 5.8 mph - N/A   Unknown
12:35 AM 59.0 °F 55.4 °F 88% 30.07 in 10.0 mi WSW 4.6 mph - N/A   Unknown
12:55 AM 59.0 °F 55.4 °F 88% 30.07 in 10.0 mi WSW 6.9 mph - N/A   Unknown
1:15 AM 57.2 °F 55.4 °F 94% 30.07 in 9.0 mi SW 3.5 mph - N/A   Unknown
1:35 AM 57.2 °F 57.2 °F 100% 30.07 in 7.0 mi Calm Calm - N/A   Unknown
1:55 AM 57.2 °F 55.4 °F 94% 30.07 in 10.0 mi West 5.8 mph - N/A   Unknown
2:15 AM 57.2 °F 55.4 °F 94% 30.07 in 10.0 mi NNW 4.6 mph - N/A   Unknown
2:35 AM 57.2 °F 55.4 °F 94% 30.06 in 9.0 mi NNW 3.5 mph - N/A   Unknown
2:55 AM 57.2 °F 57.2 °F 100% 30.07 in 10.0 mi NW 3.5 mph - N/A   Unknown
3:15 AM 55.4 °F 55.4 °F 100% 30.07 in 10.0 mi North 3.5 mph - N/A   Unknown
3:35 AM 55.4 °F 55.4 °F 100% 30.07 in 9.0 mi NW 3.5 mph - N/A   Unknown
3:55 AM 55.4 °F 55.4 °F 100% 30.07 in 10.0 mi NNW 3.5 mph - N/A   Unknown
4:15 AM 55.4 °F 55.4 °F 100% 30.06 in 10.0 mi NNW 5.8 mph - N/A   Overcast
4:35 AM 55.4 °F 55.4 °F 100% 30.06 in 4.0 mi North 5.8 mph - N/A   Mist
4:55 AM 55.4 °F 55.4 °F 100% 30.06 in 5.0 mi North 5.8 mph - N/A   Mist
5:15 AM 55.4 °F 55.4 °F 100% 30.06 in 10.0 mi NNW 5.8 mph - N/A   Unknown
5:35 AM 55.4 °F 55.4 °F 100% 30.06 in 10.0 mi North 5.8 mph - N/A   Unknown
5:55 AM 55.4 °F 55.4 °F 100% 30.06 in 10.0 mi North 4.6 mph - N/A   Unknown
6:15 AM 55.4 °F 55.4 °F 100% 30.06 in 9.0 mi NNW 4.6 mph - N/A   Unknown
6:35 AM 55.4 °F 55.4 °F 100% 30.06 in 2.0 mi NNW 4.6 mph - N/A   Mist
6:55 AM 55.4 °F 55.4 °F 100% 30.07 in 3.0 mi North 3.5 mph - N/A   Mist
7:15 AM 55.4 °F 55.4 °F 100% 30.07 in 2.5 mi Calm Calm - N/A   Mist
7:35 AM 55.4 °F 55.4 °F 100% 30.07 in 1.0 mi Calm Calm - N/A Rain Light Rain
7:55 AM 55.4 °F 55.4 °F 100% 30.08 in 10.0 mi NNE 3.5 mph - N/A   Unknown
8:15 AM 57.2 °F 57.2 °F 100% 30.08 in 4.0 mi NNE 3.5 mph - N/A   Mist
8:35 AM 57.2 °F 57.2 °F 100% 30.09 in 10.0 mi Calm Calm - N/A   Overcast
8:55 AM 59.0 °F 57.2 °F 94% 30.09 in 10.0 mi SW 8.1 mph - N/A   Overcast
9:15 AM 59.0 °F 55.4 °F 88% 30.09 in 10.0 mi West 4.6 mph - N/A   Overcast
9:35 AM 60.8 °F 55.4 °F 82% 30.10 in 10.0 mi NW 4.6 mph - N/A   Overcast
9:55 AM 60.8 °F 55.4 °F 82% 30.11 in 10.0 mi WSW 6.9 mph - N/A   Overcast
10:15 AM 62.6 °F 55.4 °F 77% 30.11 in 10.0 mi West 3.5 mph - N/A   Overcast
10:35 AM 62.6 °F 55.4 °F 77% 30.11 in 10.0 mi SW 9.2 mph - N/A   Overcast
10:55 AM 64.4 °F 55.4 °F 73% 30.11 in 10.0 mi SW 6.9 mph - N/A   Overcast
11:15 AM 64.4 °F 55.4 °F 73% 30.11 in 10.0 mi West 8.1 mph - N/A   Overcast
11:35 AM 66.2 °F 55.4 °F 68% 30.11 in 10.0 mi SW 9.2 mph - N/A   Mostly Cloudy
11:55 AM 66.2 °F 55.4 °F 68% 30.11 in 10.0 mi WSW 11.5 mph - N/A   Overcast
12:15 PM 68.0 °F 55.4 °F 64% 30.11 in 10.0 mi SW 10.4 mph - N/A   Scattered Clouds
12:35 PM 66.2 °F 55.4 °F 68% 30.10 in 10.0 mi SW 4.6 mph - N/A   Mostly Cloudy
12:55 PM 68.0 °F 55.4 °F 64% 30.10 in 10.0 mi WSW 9.2 mph - N/A   Mostly Cloudy
1:15 PM 68.0 °F 55.4 °F 64% 30.10 in 10.0 mi SW 6.9 mph - N/A   Mostly Cloudy
1:35 PM 68.0 °F 55.4 °F 64% 30.10 in 10.0 mi WSW 4.6 mph - N/A   Overcast
1:55 PM 69.8 °F 55.4 °F 60% 30.09 in 10.0 mi WSW 8.1 mph - N/A   Mostly Cloudy
2:15 PM 71.6 °F 55.4 °F 57% 30.09 in - SW 9.2 mph - N/A   Mostly Cloudy
2:35 PM 71.6 °F 55.4 °F 57% 30.09 in - SW 11.5 mph - N/A   Mostly Cloudy
2:55 PM 71.6 °F 55.4 °F 57% 30.08 in 10.0 mi WSW 9.2 mph 17.3 mph N/A   Scattered Clouds
3:15 PM 71.6 °F 55.4 °F 57% 30.08 in - WSW 16.1 mph 19.6 mph N/A   Clear
3:35 PM 69.8 °F 55.4 °F 60% 30.08 in 10.0 mi WSW 13.8 mph 20.7 mph N/A   Clear
3:55 PM 68.0 °F 55.4 °F 64% 30.07 in 10.0 mi WNW 9.2 mph 16.1 mph N/A   Scattered Clouds
4:15 PM 68.0 °F 55.4 °F 64% 30.07 in 10.0 mi SW 10.4 mph - N/A   Scattered Clouds
4:35 PM 68.0 °F 55.4 °F 64% 30.07 in 10.0 mi West 11.5 mph 17.3 mph N/A   Clear
4:55 PM 68.0 °F 55.4 °F 64% 30.07 in 10.0 mi SW 12.7 mph 16.1 mph N/A   Clear
5:15 PM 66.2 °F 55.4 °F 68% 30.07 in 10.0 mi SW 13.8 mph - N/A   Scattered Clouds
5:35 PM 66.2 °F 57.2 °F 73% 30.06 in 10.0 mi SW 11.5 mph 19.6 mph N/A   Scattered Clouds
5:55 PM 66.2 °F 57.2 °F 73% 30.06 in 10.0 mi WSW 12.7 mph 20.7 mph N/A   Scattered Clouds
6:15 PM 66.2 °F 57.2 °F 73% 30.06 in 10.0 mi SW 11.5 mph - N/A   Partly Cloudy
6:35 PM 64.4 °F 55.4 °F 73% 30.06 in 10.0 mi WSW 11.5 mph - N/A   Clear
6:55 PM 64.4 °F 55.4 °F 73% 30.05 in 10.0 mi WSW 10.4 mph - N/A   Clear
7:15 PM 62.6 °F 57.2 °F 82% 30.05 in 10.0 mi WSW 11.5 mph - N/A   Clear
7:35 PM 62.6 °F 57.2 °F 82% 30.05 in 10.0 mi WSW 9.2 mph - N/A   Clear
7:55 PM 62.6 °F 57.2 °F 82% 30.05 in 10.0 mi SW 9.2 mph - N/A   Clear
8:15 PM 62.6 °F 57.2 °F 82% 30.05 in 10.0 mi SW 8.1 mph - N/A   Mostly Cloudy
8:35 PM 62.6 °F 57.2 °F 82% 30.05 in 10.0 mi SW 9.2 mph - N/A   Overcast
8:55 PM 62.6 °F 57.2 °F 82% 30.05 in 10.0 mi WSW 9.2 mph - N/A   Overcast
9:15 PM 62.6 °F 57.2 °F 82% 30.06 in 10.0 mi SW 9.2 mph - N/A   Overcast
9:35 PM 60.8 °F 57.2 °F 88% 30.06 in 10.0 mi WSW 10.4 mph - N/A   Mostly Cloudy
9:55 PM 60.8 °F 59.0 °F 94% 30.06 in 10.0 mi WSW 9.2 mph - N/A   Mostly Cloudy
10:15 PM 60.8 °F 59.0 °F 94% 30.06 in 10.0 mi WSW 6.9 mph - N/A   Mostly Cloudy
10:35 PM 59.0 °F 59.0 °F 100% 30.06 in 10.0 mi West 5.8 mph - N/A   Overcast
10:55 PM 59.0 °F 57.2 °F 94% 30.05 in 10.0 mi WSW 3.5 mph - N/A   Overcast
11:15 PM 59.0 °F 57.2 °F 94% 30.05 in 10.0 mi Calm Calm - N/A   Overcast
11:35 PM 59.0 °F 57.2 °F 94% 30.05 in 10.0 mi NW 6.9 mph - N/A   Overcast
11:55 PM 59.0 °F 57.2 °F 94% 30.05 in 10.0 mi West 3.5 mph - N/A   Overcast